Regional Weather Roundup
Issued by NWS Sioux Falls, SD

Home | Current Version | Previous Version | Graphics & Text | Print | Product List | Glossary Off
Versions: 1 2 3 4 5 6 7 8 9 10 11 12 13 14 15 16 17 18 19 20 21 22 23 24 25 26 27 28 29 30 31 32 33 34 35 36 37 38 39 40 41 42 43 44 45 46 47 48 49 50

000
ASUS43 KFSD 011502
RWRFSD

WEATHER ROUNDUP FOR SE SOUTH DAKOTA/SW MINNESOTA/NW IOWA
NATIONAL WEATHER SERVICE SIOUX FALLS SD
1000 AM CDT SUN MAY 01 2016

NOTE: "FAIR" INDICATES FEW OR NO CLOUDS BELOW 12,000 FEET WITH NO
SIGNIFICANT WEATHER AND OR OBSTRUCTIONS TO VISIBILITY.


SDZ038>040-050-052>070-011600-
SOUTHEAST SOUTH DAKOTA

CITY           SKY/WX    TMP DP  RH WIND       PRES   REMARKS
BROOKINGS      SUNNY     43  33  68 N13       30.19S
CHAMBERLAIN    NOT AVBL
HURON          SUNNY     47  34  60 N13       30.24S
MADISON        FAIR      41  39  93 NE14      30.20R
MITCHELL       SUNNY     46  37  71 N12       30.23R
SIOUX FALLS    PTSUNNY   42  36  79 N10       30.19R
WINNER         FAIR      48  37  65 N13       30.26R
YANKTON        CLOUDY    43  36  75 N15       30.18R
$$

MNZ071-072-080-081-089-090-097-098-011600-
SOUTHWEST MINNESOTA

CITY           SKY/WX    TMP DP  RH WIND       PRES   REMARKS
FAIRMONT       CLOUDY    43  34  70 N12G17    30.11S
JACKSON        CLOUDY    43  36  75 N17       30.13S
LUVERNE        CLOUDY    41  34  75 N12G17    30.17R
MARSHALL       SUNNY     44  34  67 N12       30.20S
MONTEVIDEO     SUNNY     50  36  57 E13G18    30.22S
REDWOOD FALLS  MOSUNNY   48  34  58 N12G17    30.17F
TRACY          CLOUDY    45  38  77 N10       30.18S
WINDOM         CLOUDY    45  39  81 N14       30.14S
WORTHINGTON    CLOUDY    41  37  86 N14       30.15R
$$

IAZ001>003-012>014-020>022-031-032-NEZ013-014-SDZ071-011600-
NORTHWEST IOWA

CITY           SKY/WX    TMP DP  RH WIND       PRES   REMARKS
DENISON        CLOUDY    43  41  93 NE15      30.05R FOG
ESTHERVILLE    CLOUDY    42  38  85 N16       30.12R
SIOUX CITY     LGT RAIN  45  41  86 N12       30.13R
SPENCER        CLOUDY    43  37  79 NE20      30.12R
STORM LAKE     LGT RAIN  43  41  93 NE17G25   30.09R
$$

ABBREVIATIONS USED IN REMARKS
   TC - TEMPERATURE IN CELSIUS
  WCI - WIND CHILL INDEX
   HX - HEAT INDEX
  VSB - VISIBILITY




USA.gov is the U.S. government's official web portal to all federal, state and local government web resources and services.